Location: Bretagne
(43.8474°N, 0.4650°W)
Time: 08:28:47
(UTC+00:00)

Envisat - Pass Details

Date: 08 March 2026
Orbit: 761 x 762 km, 98.4° (Epoch: 18 April)

Event Time Altitude Azimuth Distance (km) Brightness Sun altitude
Rises 02:12:28 0° 19° (NNE) 3,235 6.9 -43.0°
Reaches altitude 10° 02:14:53 10° 26° (NNE) 2,304 6.0 -42.7°
Enters shadow 02:15:27 13° 29° (NNE) 2,094 5.8 -42.6°
